User: anonymous   Login
Location: Unspecified
(0.0000°N, 0.0000°E)
Time: 12:08:17
(UTC+02:00)
Language:

Cosmos 2263 Rocket - Orbit

View from above orbital plane
View from above orbital plane
View from above satellite
View from above satellite

Ground track
Ground track

The orbit data is extracted from the following two-line orbital elements,

1 22803U 93059B   15184.91072337  .00000061  00000-0  54354-4 0  9994
2 22803 070.9909 314.5209 0016157 027.0453 333.1509 14.16715099127115
Epoch (UTC): 03 July 2015 21:51:26
Eccentricity: 0.0016157
inclination: 70.9909°
perigee height: 825 km
apogee height: 848 km
right ascension of ascending node: 314.5209°
argument of perigee: 27.0453°
revolutions per day: 14.16715099
mean anomaly at epoch: 333.1509°
orbit number at epoch: 12711

The dashed part of the orbit path shows where the satellite is in the earth's shadow,  

DLR